Change the Weather History Date:

Saturday, May 19, 2012

  Actual Average Record
Temperature  
Mean Temperature 76 °F 65 °F  
Max Temperature 90 °F 77 °F 98 °F (2006)
Min Temperature 62 °F 52 °F 42 °F (1997)
Degree Days  
Heating Degree Days 0 3  
Month to date heating degree days 28 98  
Since 1 July heating degree days 4197 5279  
Cooling Degree Days 11 3  
Month to date cooling degree days 106 35  
Year to date cooling degree days 172 52  
Growing Degree Days 27 (Base 50)    
Moisture  
Dew Point 59 °F    
Average Humidity 59    
Maximum Humidity 78    
Minimum Humidity 39    
Precipitation  
Precipitation 0.00 in 0.14 in 0.90 in (2003)
Month to date precipitation 0.37 2.42  
Year to date precipitation 6.95 9.14  
Sea Level Pressure  
Sea Level Pressure 29.74 in    
Wind  
Wind Speed 16 mph (South)    
Max Wind Speed 30 mph    
Max Gust Speed 38 mph    
Visibility 10 miles    
Events      
T = Trace of Precipitation, MM = Missing Value Source: NWS Daily Summary

Daily Weather History Graph

Daily Weather History Graph

Search for Another Location

Airport or City:

Trip Planner

Search our weather history database for the weather conditions in past years. The results will help you decide how hot, cold, wet, or windy it might be!

Date:

Astronomy

May. 19, 2012 Rise Set
Actual Time 6:09 AM CDT 8:37 PM CDT
Civil Twilight 5:39 AM CDT 9:07 PM CDT
Nautical Twilight 5:01 AM CDT 9:45 PM CDT
Astronomical Twilight 4:19 AM CDT 10:27 PM CDT
Moon 5:12 AM CDT (5/19) 7:42 PM CDT (5/19)
Length of Visible Light 15h 28m
Length of Day
14h 27m
Waning Crescent, 1% of the Moon is Illuminated
May 19
Waning Crescent
May 20
New
May 28
First Quarter
Jun 4
Full
Jun 11
Last Quarter

Hourly Weather History & Observations

Time (CDT) Temp. Heat Index Dew Point Humidity Pressure Visibility Wind Dir Wind Speed Gust Speed Precip Events Conditions
12:52 AM 75.0 °F - 57.0 °F 53% 29.71 in 10.0 mi South 18.4 mph 27.6 mph N/A   Clear
1:52 AM 73.9 °F - 57.9 °F 57% 29.71 in 10.0 mi South 15.0 mph 26.5 mph N/A   Clear
2:52 AM 73.0 °F - 57.9 °F 59% 29.70 in 10.0 mi South 15.0 mph 24.2 mph N/A   Clear
3:52 AM 73.0 °F - 57.9 °F 59% 29.69 in 10.0 mi South 16.1 mph 23.0 mph N/A   Clear
4:52 AM 72.0 °F - 57.0 °F 59% 29.70 in 10.0 mi South 13.8 mph 21.9 mph N/A   Clear
5:52 AM 71.1 °F - 57.0 °F 61% 29.69 in 10.0 mi South 11.5 mph 18.4 mph N/A   Clear
6:52 AM 70.0 °F - 57.0 °F 63% 29.69 in 10.0 mi South 10.4 mph 17.3 mph N/A   Clear
7:52 AM 73.0 °F - 57.9 °F 59% 29.71 in 10.0 mi South 20.7 mph 29.9 mph N/A   Clear
8:52 AM 75.9 °F - 59.0 °F 56% 29.73 in 10.0 mi South 13.8 mph 21.9 mph N/A   Clear
9:52 AM 80.1 °F 80.7 °F 59.0 °F 48% 29.72 in 10.0 mi SSW 20.7 mph 38.0 mph N/A   Clear
10:52 AM 81.0 °F 81.3 °F 59.0 °F 47% 29.73 in 10.0 mi SSW 23.0 mph 32.2 mph N/A   Clear
11:52 AM 81.0 °F 81.6 °F 60.1 °F 49% 29.73 in 10.0 mi SSW 20.7 mph 36.8 mph N/A   Clear
12:52 PM 87.1 °F 87.0 °F 61.0 °F 41% 29.72 in 10.0 mi SSW 15.0 mph 25.3 mph N/A   Clear
1:52 PM 88.0 °F 87.1 °F 59.0 °F 37% 29.71 in 10.0 mi South 16.1 mph 27.6 mph N/A   Partly Cloudy
2:52 PM 88.0 °F 87.6 °F 60.1 °F 39% 29.72 in 10.0 mi SSW 23.0 mph 28.8 mph N/A   Mostly Cloudy
3:52 PM 87.1 °F 86.5 °F 59.0 °F 39% 29.73 in 10.0 mi South 17.3 mph 32.2 mph N/A   Partly Cloudy
4:52 PM 88.0 °F 87.1 °F 59.0 °F 37% 29.72 in 10.0 mi South 24.2 mph 33.4 mph N/A   Mostly Cloudy
5:52 PM 84.9 °F 84.8 °F 60.1 °F 43% 29.74 in 10.0 mi South 18.4 mph 25.3 mph N/A   Scattered Clouds
6:52 PM 84.0 °F 84.4 °F 61.0 °F 46% 29.72 in 10.0 mi South 23.0 mph 32.2 mph N/A   Clear
7:52 PM 81.0 °F 81.6 °F 60.1 °F 49% 29.70 in 10.0 mi South 19.6 mph 31.1 mph N/A   Clear
8:52 PM 81.0 °F 81.6 °F 60.1 °F 49% 29.79 in 10.0 mi SSW 17.3 mph 24.2 mph N/A   Scattered Clouds
9:52 PM 73.9 °F - 63.0 °F 68% 29.83 in 10.0 mi WSW 12.7 mph 24.2 mph N/A   Partly Cloudy
10:52 PM 66.0 °F - 57.9 °F 75% 29.90 in 10.0 mi West 10.4 mph 18.4 mph N/A   Clear
11:52 PM 62.1 °F - 55.9 °F 80% 29.95 in 10.0 mi Variable 3.5 mph - N/A   Clear